Weather History for MMLO - August, 2013

Change the Weather History Date:

Saturday, August 17, 2013

  Actual Average Record
Temperature  
Mean Temperature 70 °F -  
Max Temperature 86 °F 79 °F 87 °F (2011)
Min Temperature 55 °F 57 °F 53 °F (2014)
Cooling Degree Days 6    
Growing Degree Days 20 (Base 50)    
Moisture  
Dew Point 48 °F    
Average Humidity 47    
Maximum Humidity 82    
Minimum Humidity 26    
Precipitation  
Precipitation 0.00 in - - ()
Sea Level Pressure  
Sea Level Pressure 30.09 in    
Wind  
Wind Speed 6 mph ()    
Max Wind Speed 18 mph    
Max Gust Speed -    
Visibility 9.0 miles    
Events      
Averages and records for this station are not official NWS values.
T = Trace of Precipitation, MM = Missing Value Source: Averaged Metar Reports

Daily Weather History Graph

Daily Weather History Graph

Search for Another Location

Airport or City:

Trip Planner

Search our weather history database for the weather conditions in past years. The results will help you decide how hot, cold, wet, or windy it might be!

Date:

Astronomy

Aug. 17, 2013 Rise Set
Actual Time 7:25 AM CDT 8:13 PM CDT
Civil Twilight 7:02 AM CDT 8:36 PM CDT
Nautical Twilight 6:35 AM CDT 9:03 PM CDT
Astronomical Twilight 6:07 AM CDT 9:31 PM CDT
Moon 5:19 PM CDT (8/17) 3:44 AM CDT (8/17)
Length of Visible Light 13h 34m
Length of Day
12h 48m
Waxing Gibbous, 84% of the Moon is Illuminated
Aug 17
Waxing Gibbous
Aug 20
Full
Aug 28
Last Quarter
Sep 5
New
Sep 12
First Quarter

Hourly Weather History & Observations

Time (CDT) Temp. Dew Point Humidity Pressure Visibility Wind Dir Wind Speed Gust Speed Precip Events Conditions
12:44 AM 66.2 °F 35.6 °F 32% 29.84 in 8.0 mi East 5.8 mph - N/A   Clear
1:40 AM 64.4 °F 37.4 °F 37% 30.27 in 8.0 mi ESE 8.1 mph - N/A   Clear
2:46 AM 64.4 °F 48.2 °F 56% 30.27 in 8.0 mi East 5.8 mph - N/A   Clear
3:44 AM 62.6 °F 51.8 °F 68% 29.77 in 8.0 mi SSE 3.5 mph - N/A   Clear
4:45 AM 60.8 °F 50.0 °F 68% 30.24 in 8.0 mi Calm Calm - N/A   Clear
5:45 AM 59.0 °F 50.0 °F 72% 30.24 in 8.0 mi WSW 3.5 mph - N/A   Clear
6:45 AM 57.2 °F 50.0 °F 77% 29.83 in 8.0 mi WSW 3.5 mph - N/A   Partly Cloudy
7:44 AM 55.4 °F 50.0 °F 82% 30.27 in 9.0 mi West 4.6 mph - N/A   Scattered Clouds
8:41 AM 64.4 °F 51.8 °F 64% 30.29 in 9.0 mi Calm Calm - N/A   Partly Cloudy
9:42 AM 69.8 °F 51.8 °F 53% 29.90 in 10.0 mi Calm Calm - N/A   Partly Cloudy
10:42 AM 75.2 °F 53.6 °F 47% 30.29 in 10.0 mi WSW 4.6 mph - N/A   Partly Cloudy
11:49 AM 78.8 °F 51.8 °F 39% 30.29 in 10.0 mi ENE 4.6 mph - N/A   Scattered Clouds
12:45 PM 82.4 °F 51.8 °F 35% 29.83 in 10.0 mi East 8.1 mph - N/A   Scattered Clouds
1:49 PM 82.4 °F 50.0 °F 32% 30.24 in 10.0 mi ESE 5.8 mph - N/A   Scattered Clouds
2:44 PM 82.4 °F 48.2 °F 30% 30.21 in 10.0 mi North 5.8 mph - N/A   Mostly Cloudy
3:45 PM 86.0 °F 48.2 °F 27% 29.72 in 10.0 mi NE 17.3 mph - N/A   Mostly Cloudy
4:43 PM 84.2 °F 48.2 °F 29% 30.18 in 10.0 mi East 11.5 mph - N/A   Scattered Clouds
5:43 PM 84.2 °F 46.4 °F 27% 30.18 in 10.0 mi East 18.4 mph - N/A   Scattered Clouds
6:44 PM 82.4 °F 44.6 °F 26% 29.76 in 10.0 mi NE 18.4 mph - N/A   Scattered Clouds
7:45 PM 78.8 °F 44.6 °F 30% 30.18 in 10.0 mi ENE 11.5 mph - N/A   Scattered Clouds
8:43 PM 73.4 °F 50.0 °F 44% 30.18 in 8.0 mi ENE 15.0 mph - N/A   Scattered Clouds
9:40 PM 69.8 °F 50.0 °F 49% 29.78 in 8.0 mi ENE 5.8 mph - N/A   Scattered Clouds
10:40 PM 68.0 °F 48.2 °F 49% 30.21 in 8.0 mi NE 6.9 mph - N/A   Partly Cloudy
11:50 PM 68.0 °F 48.2 °F 49% 30.23 in 8.0 mi NE 2.3 mph - N/A   Clear